| time (UTC) | temp F | wind direction | speed MPH | gust MPH | rain 1hr in | rain 24hr in | rain mn in | humidity % | barometer mb |
| 20260510230806 | 70 | 282 | 5.0 | 10.0 | 0.00 | 0.00 | 0.00 | 45 | 1014.8 |
| 20260510230306 | 70 | 268 | 6.0 | 10.0 | 0.00 | 0.00 | 0.00 | 45 | 1014.7 |
| 20260510225806 | 71 | 268 | 7.0 | 13.0 | 0.00 | 0.00 | 0.00 | 44 | 1014.8 |
| 20260510225307 | 70 | 296 | 9.0 | 18.0 | 0.00 | 0.00 | 0.00 | 44 | 1014.6 |
| 20260510224806 | 70 | 271 | 14.0 | 18.0 | 0.00 | 0.00 | 0.00 | 45 | 1014.8 |
| 20260510224305 | 70 | 262 | 12.0 | 18.0 | 0.00 | 0.00 | 0.00 | 45 | 1015.1 |
| 20260510223806 | 70 | 300 | 9.0 | 15.0 | 0.00 | 0.00 | 0.00 | 45 | 1014.7 |
| 20260510223306 | 71 | 253 | 10.0 | 16.0 | 0.00 | 0.00 | 0.00 | 45 | 1014.2 |
| 20260510222806 | 72 | 279 | 7.0 | 10.0 | 0.00 | 0.00 | 0.00 | 46 | 1014.2 |
| 20260510222306 | 72 | 249 | 5.0 | 8.0 | 0.00 | 0.00 | 0.00 | 46 | 1014.0 |
| 20260510221805 | 71 | 268 | 3.0 | 9.0 | 0.00 | 0.00 | 0.00 | 49 | 1014.2 |
| 20260510221305 | 70 | 295 | 6.0 | 12.0 | 0.00 | 0.00 | 0.00 | 49 | 1014.4 |
| 20260510220806 | 69 | 271 | 7.0 | 10.0 | 0.00 | 0.00 | 0.00 | 50 | 1014.6 |
| 20260510220305 | 69 | 292 | 6.0 | 10.0 | 0.00 | 0.00 | 0.00 | 50 | 1014.8 |
| 20260510215806 | 68 | 278 | 8.0 | 10.0 | 0.00 | 0.00 | 0.00 | 52 | 1015.0 |
| 20260510215307 | 68 | 305 | 6.0 | 9.0 | 0.00 | 0.00 | 0.00 | 53 | 1014.6 |
| 20260510214805 | 68 | 283 | 7.0 | 9.0 | 0.00 | 0.00 | 0.00 | 53 | 1014.7 |
| 20260510214306 | 68 | 302 | 6.0 | 9.0 | 0.00 | 0.00 | 0.00 | 54 | 1014.6 |
| 20260510213306 | 69 | 297 | 4.0 | 10.0 | 0.00 | 0.00 | 0.00 | 53 | 1014.7 |
| 20260510212805 | 69 | 317 | 5.0 | 15.0 | 0.00 | 0.00 | 0.00 | 51 | 1014.9 |
| 20260510211305 | 70 | 298 | 7.0 | 13.0 | 0.00 | 0.00 | 0.00 | 47 | 1014.4 |
| 20260510210806 | 71 | 295 | 10.0 | 13.0 | 0.00 | 0.00 | 0.00 | 46 | 1014.2 |
| 20260510210306 | 72 | 277 | 6.0 | 14.0 | 0.00 | 0.00 | 0.00 | 45 | 1013.8 |
| 20260510205307 | 75 | 311 | 2.0 | 9.0 | 0.00 | 0.00 | 0.00 | 42 | 1013.3 |
| 20260510204806 | 74 | 285 | 5.0 | 12.0 | 0.00 | 0.00 | 0.00 | 42 | 1013.3 |
| 20260510204305 | 73 | 270 | 7.0 | 16.0 | 0.00 | 0.00 | 0.00 | 41 | 1013.3 |
| 20260510203806 | 72 | 292 | 6.0 | 12.0 | 0.00 | 0.00 | 0.00 | 41 | 1013.6 |
| 20260510202805 | 72 | 327 | 7.0 | 13.0 | 0.00 | 0.00 | 0.00 | 42 | 1013.9 |
| 20260510201306 | 73 | 286 | 7.0 | 14.0 | 0.00 | 0.00 | 0.00 | 39 | 1013.5 |
| 20260510200806 | 72 | 272 | 9.0 | 20.0 | 0.00 | 0.00 | 0.00 | 40 | 1014.0 |
| 20260510200305 | 74 | 256 | 8.0 | 16.0 | 0.00 | 0.00 | 0.00 | 36 | 1013.4 |
| 20260510195806 | 73 | 261 | 4.0 | 10.0 | 0.00 | 0.00 | 0.00 | 39 | 1013.9 |
| 20260510195306 | 72 | 258 | 10.0 | 15.0 | 0.00 | 0.00 | 0.00 | 39 | 1014.2 |
| 20260510194806 | 73 | 261 | 6.0 | 10.0 | 0.00 | 0.00 | 0.00 | 38 | 1013.7 |
| 20260510193805 | 73 | 273 | 6.0 | 13.0 | 0.00 | 0.00 | 0.00 | 39 | 1014.0 |
| 20260510193306 | 72 | 262 | 4.0 | 10.0 | 0.00 | 0.00 | 0.00 | 41 | 1014.0 |
| 20260510192806 | 72 | 275 | 5.0 | 10.0 | 0.00 | 0.00 | 0.00 | 39 | 1013.9 |
| 20260510192307 | 73 | 308 | 6.0 | 10.0 | 0.00 | 0.00 | 0.00 | 41 | 1013.9 |
| 20260510191805 | 73 | 320 | 3.0 | 9.0 | 0.00 | 0.00 | 0.00 | 41 | 1013.8 |
| 20260510191305 | 72 | 264 | 5.0 | 12.0 | 0.00 | 0.00 | 0.00 | 41 | 1014.3 |
| 20260510190805 | 74 | 267 | 5.0 | 12.0 | 0.00 | 0.00 | 0.00 | 40 | 1013.9 |
| 20260510190305 | 73 | 256 | 5.0 | 15.0 | 0.00 | 0.00 | 0.00 | 39 | 1013.9 |
| 20260510185306 | 73 | 274 | 5.0 | 14.0 | 0.00 | 0.00 | 0.00 | 40 | 1014.3 |
| 20260510184806 | 72 | 277 | 6.0 | 9.0 | 0.00 | 0.00 | 0.00 | 42 | 1014.2 |
| 20260510184305 | 73 | 243 | 2.0 | 8.0 | 0.00 | 0.00 | 0.00 | 42 | 1013.9 |
| 20260510183805 | 73 | 253 | 6.0 | 8.0 | 0.00 | 0.00 | 0.00 | 41 | 1014.4 |
| 20260510183305 | 73 | 297 | 5.0 | 9.0 | 0.00 | 0.00 | 0.00 | 45 | 1014.2 |
| 20260510182805 | 75 | 300 | 5.0 | 12.0 | 0.00 | 0.00 | 0.00 | 40 | 1013.9 |
| 20260510182306 | 72 | 354 | 5.0 | 14.0 | 0.00 | 0.00 | 0.00 | 43 | 1014.3 |
| 20260510181805 | 72 | 263 | 9.0 | 22.0 | 0.00 | 0.00 | 0.00 | 40 | 1014.3 |
| 20260510181305 | 75 | 275 | 12.0 | 22.0 | 0.00 | 0.00 | 0.00 | 37 | 1013.6 |
| 20260510180805 | 74 | 289 | 2.0 | 7.0 | 0.00 | 0.00 | 0.00 | 41 | 1014.1 |
| 20260510175805 | 73 | 322 | 3.0 | 10.0 | 0.00 | 0.00 | 0.00 | 39 | 1014.5 |
| 20260510175306 | 72 | 292 | 5.0 | 13.0 | 0.00 | 0.00 | 0.00 | 43 | 1014.8 |
| 20260510174806 | 73 | 270 | 9.0 | 14.0 | 0.00 | 0.00 | 0.00 | 38 | 1014.6 |
| 20260510174305 | 73 | 264 | 8.0 | 15.0 | 0.00 | 0.00 | 0.00 | 39 | 1014.5 |
| 20260510173805 | 74 | 281 | 6.0 | 10.0 | 0.00 | 0.00 | 0.00 | 39 | 1014.2 |
| 20260510173305 | 73 | 306 | 6.0 | 14.0 | 0.00 | 0.00 | 0.00 | 40 | 1014.3 |
| 20260510172804 | 71 | 294 | 7.0 | 14.0 | 0.00 | 0.00 | 0.00 | 41 | 1015.0 |
| 20260510172306 | 70 | 292 | 4.0 | 13.0 | 0.00 | 0.00 | 0.00 | 38 | 1015.2 |
| 20260510171805 | 70 | 296 | 8.0 | 20.0 | 0.00 | 0.00 | 0.00 | 40 | 1015.3 |
| 20260510170804 | 71 | 292 | 7.0 | 15.0 | 0.00 | 0.00 | 0.00 | 35 | 1015.3 |
| 20260510170305 | 69 | 259 | 12.0 | 18.0 | 0.00 | 0.00 | 0.00 | 36 | 1015.5 |
| 20260510165805 | 70 | 292 | 8.0 | 15.0 | 0.00 | 0.00 | 0.00 | 36 | 1015.1 |
| 20260510165306 | 71 | 255 | 10.0 | 17.0 | 0.00 | 0.00 | 0.00 | 32 | 1015.4 |
| 20260510164804 | 71 | 313 | 5.0 | 18.0 | 0.00 | 0.00 | 0.00 | 37 | 1015.4 |
| 20260510163805 | 70 | 286 | 10.0 | 18.0 | 0.00 | 0.00 | 0.00 | 37 | 1015.2 |
| 20260510163305 | 70 | 304 | 6.0 | 17.0 | 0.00 | 0.00 | 0.00 | 40 | 1015.3 |
| 20260510162805 | 70 | 278 | 7.0 | 15.0 | 0.00 | 0.00 | 0.00 | 36 | 1015.2 |
| 20260510162306 | 71 | 309 | 7.0 | 16.0 | 0.00 | 0.00 | 0.00 | 34 | 1015.4 |
| 20260510161804 | 69 | 306 | 9.0 | 14.0 | 0.00 | 0.00 | 0.00 | 39 | 1015.5 |
| 20260510161305 | 69 | 269 | 10.0 | 17.0 | 0.00 | 0.00 | 0.00 | 37 | 1015.5 |
| 20260510160804 | 69 | 268 | 9.0 | 17.0 | 0.00 | 0.00 | 0.00 | 32 | 1015.7 |
| 20260510160305 | 70 | 273 | 8.0 | 16.0 | 0.00 | 0.00 | 0.00 | 37 | 1015.5 |
| 20260510155804 | 69 | 273 | 9.0 | 16.0 | 0.00 | 0.00 | 0.00 | 36 | 1015.6 |
| 20260510155306 | 69 | 309 | 5.0 | 14.0 | 0.00 | 0.00 | 0.00 | 39 | 1015.5 |
| 20260510154805 | 70 | 299 | 8.0 | 12.0 | 0.00 | 0.00 | 0.00 | 40 | 1015.4 |
| 20260510154304 | 69 | 293 | 7.0 | 10.0 | 0.00 | 0.00 | 0.00 | 40 | 1015.5 |
| 20260510153805 | 69 | 301 | 8.0 | 14.0 | 0.00 | 0.00 | 0.00 | 42 | 1015.5 |
| 20260510153305 | 68 | 298 | 5.0 | 16.0 | 0.00 | 0.00 | 0.00 | 44 | 1015.6 |
| 20260510152804 | 68 | 257 | 11.0 | 17.0 | 0.00 | 0.00 | 0.00 | 41 | 1015.7 |
| 20260510151305 | 69 | 312 | 2.0 | 10.0 | 0.00 | 0.00 | 0.00 | 47 | 1015.6 |
| 20260510150804 | 68 | 287 | 5.0 | 10.0 | 0.00 | 0.00 | 0.00 | 45 | 1015.7 |
| 20260510150305 | 68 | 299 | 7.0 | 14.0 | 0.00 | 0.00 | 0.00 | 47 | 1015.8 |
| 20260510145306 | 67 | 295 | 8.0 | 13.0 | 0.00 | 0.00 | 0.00 | 47 | 1016.1 |
| 20260510144804 | 67 | 276 | 11.0 | 14.0 | 0.00 | 0.00 | 0.00 | 46 | 1016.0 |
| 20260510144305 | 66 | 286 | 8.0 | 14.0 | 0.00 | 0.00 | 0.00 | 48 | 1016.1 |
| 20260510143304 | 66 | 315 | 10.0 | 15.0 | 0.00 | 0.00 | 0.00 | 50 | 1016.2 |
| 20260510142805 | 67 | 298 | 9.0 | 14.0 | 0.00 | 0.00 | 0.00 | 48 | 1015.8 |
| 20260510142306 | 67 | 338 | 7.0 | 13.0 | 0.00 | 0.00 | 0.00 | 49 | 1015.9 |
| 20260510141806 | 66 | 298 | 5.0 | 14.0 | 0.00 | 0.00 | 0.00 | 49 | 1016.0 |
| 20260510141304 | 67 | 312 | 8.0 | 13.0 | 0.00 | 0.00 | 0.00 | 48 | 1015.8 |
| 20260510140805 | 66 | 319 | 4.0 | 13.0 | 0.00 | 0.00 | 0.00 | 50 | 1016.1 |
| 20260510140304 | 65 | 308 | 5.0 | 16.0 | 0.00 | 0.00 | 0.00 | 50 | 1016.2 |
| 20260510135805 | 65 | 289 | 6.0 | 15.0 | 0.00 | 0.00 | 0.00 | 49 | 1016.0 |
| 20260510135306 | 65 | 304 | 8.0 | 13.0 | 0.00 | 0.00 | 0.00 | 48 | 1016.2 |
| 20260510134804 | 65 | 295 | 6.0 | 13.0 | 0.00 | 0.00 | 0.00 | 49 | 1016.2 |
| 20260510134305 | 65 | 289 | 5.0 | 10.0 | 0.00 | 0.00 | 0.00 | 51 | 1016.2 |
| 20260510133304 | 64 | 305 | 5.0 | 8.0 | 0.00 | 0.00 | 0.00 | 54 | 1016.5 |
| 20260510132804 | 63 | 311 | 3.0 | 7.0 | 0.00 | 0.00 | 0.00 | 55 | 1016.9 |
| 20260510132306 | 64 | 255 | 3.0 | 9.0 | 0.00 | 0.00 | 0.00 | 54 | 1016.9 |
| 20260510130804 | 63 | 75 | 2.0 | 3.0 | 0.00 | 0.00 | 0.00 | 65 | 1016.5 |
| 20260510130304 | 63 | 37 | 1.0 | 3.0 | 0.00 | 0.00 | 0.00 | 62 | 1016.6 |
| 20260510125804 | 63 | 109 | 1.0 | 3.0 | 0.00 | 0.00 | 0.00 | 64 | 1016.4 |
| 20260510124804 | 63 | 334 | 0.0 | 2.0 | 0.00 | 0.00 | 0.00 | 64 | 1016.7 |
| 20260510123805 | 63 | 119 | 0.0 | 2.0 | 0.00 | 0.00 | 0.00 | 66 | 1016.3 |
| 20260510122804 | 60 | 277 | 0.0 | 2.0 | 0.00 | 0.00 | 0.00 | 64 | 1016.9 |
| 20260510122306 | 59 | 331 | 0.0 | 1.0 | 0.00 | 0.00 | 0.00 | 67 | 1017.1 |
| 20260510121804 | 58 | 293 | 1.0 | 3.0 | 0.00 | 0.00 | 0.00 | 66 | 1017.1 |
| 20260510121305 | 58 | 284 | 2.0 | 5.0 | 0.00 | 0.00 | 0.00 | 65 | 1017.2 |
| 20260510120804 | 57 | 256 | 1.0 | 5.0 | 0.00 | 0.00 | 0.00 | 67 | 1017.2 |
| 20260510120304 | 57 | 274 | 3.0 | 5.0 | 0.00 | 0.00 | 0.00 | 68 | 1017.3 |
| 20260510115804 | 56 | 281 | 2.0 | 5.0 | 0.00 | 0.00 | 0.00 | 69 | 1017.3 |
| 20260510115306 | 55 | 241 | 1.0 | 3.0 | 0.00 | 0.00 | 0.00 | 74 | 1017.7 |
| 20260510114304 | 54 | 271 | 2.0 | 3.0 | 0.00 | 0.00 | 0.00 | 74 | 1017.9 |
| 20260510113304 | 53 | 254 | 1.0 | 3.0 | 0.00 | 0.00 | 0.00 | 80 | 1017.9 |
| 20260510112804 | 53 | 294 | 2.0 | 3.0 | 0.00 | 0.00 | 0.00 | 80 | 1018.0 |
| 20260510112306 | 53 | 288 | 2.0 | 3.0 | 0.00 | 0.00 | 0.00 | 79 | 1017.8 |
| 20260510111804 | 53 | 256 | 1.0 | 2.0 | 0.00 | 0.00 | 0.00 | 81 | 1017.8 |
| 20260510111304 | 53 | 292 | 2.0 | 2.0 | 0.00 | 0.00 | 0.00 | 81 | 1017.6 |
| 20260510110803 | 51 | 319 | 0.0 | 0.0 | 0.00 | 0.00 | 0.00 | 86 | 1017.9 |
| 20260510110304 | 50 | 261 | 0.0 | 2.0 | 0.00 | 0.00 | 0.00 | 88 | 1018.1 |
| 20260510105803 | 50 | 261 | 1.0 | 3.0 | 0.00 | 0.00 | 0.00 | 86 | 1017.9 |
| 20260510105306 | 53 | 263 | 2.0 | 3.0 | 0.00 | 0.00 | 0.00 | 81 | 1017.7 |
| 20260510104304 | 53 | 266 | 1.0 | 5.0 | 0.00 | 0.00 | 0.00 | 81 | 1017.3 |
| 20260510103804 | 52 | 256 | 2.0 | 3.0 | 0.00 | 0.00 | 0.00 | 83 | 1017.0 |
| 20260510103304 | 52 | 260 | 2.0 | 3.0 | 0.00 | 0.00 | 0.00 | 84 | 1017.3 |
| 20260510102804 | 52 | 241 | 1.0 | 2.0 | 0.00 | 0.00 | 0.00 | 85 | 1017.3 |
| 20260510102306 | 52 | 240 | 0.0 | 2.0 | 0.00 | 0.00 | 0.00 | 86 | 1017.3 |
| 20260510101804 | 52 | 223 | 0.0 | 2.0 | 0.00 | 0.00 | 0.00 | 87 | 1017.1 |
| 20260510101304 | 51 | 222 | 1.0 | 2.0 | 0.00 | 0.00 | 0.00 | 87 | 1017.3 |
| 20260510100804 | 51 | 222 | 1.0 | 2.0 | 0.00 | 0.00 | 0.00 | 89 | 1017.7 |
| 20260510100304 | 52 | 221 | 1.0 | 2.0 | 0.00 | 0.00 | 0.00 | 85 | 1017.1 |
| 20260510095803 | 52 | 223 | 1.0 | 1.0 | 0.00 | 0.00 | 0.00 | 86 | 1017.1 |
| 20260510095306 | 51 | 223 | 0.0 | 1.0 | 0.00 | 0.00 | 0.00 | 87 | 1017.0 |
| 20260510094804 | 51 | 217 | 0.0 | 1.0 | 0.00 | 0.00 | 0.00 | 86 | 1017.1 |
| 20260510094303 | 51 | 217 | 0.0 | 2.0 | 0.00 | 0.00 | 0.00 | 85 | 1016.9 |
| 20260510093804 | 52 | 217 | 1.0 | 2.0 | 0.00 | 0.00 | 0.00 | 85 | 1016.9 |
| 20260510093303 | 51 | 218 | 2.0 | 3.0 | 0.00 | 0.00 | 0.00 | 86 | 1017.0 |
| 20260510092804 | 52 | 229 | 1.0 | 2.0 | 0.00 | 0.00 | 0.00 | 86 | 1016.7 |
| 20260510092306 | 53 | 219 | 1.0 | 1.0 | 0.00 | 0.00 | 0.00 | 83 | 1016.6 |
| 20260510091804 | 53 | 219 | 0.0 | 1.0 | 0.00 | 0.00 | 0.00 | 82 | 1016.6 |
| 20260510091303 | 53 | 219 | 1.0 | 3.0 | 0.00 | 0.00 | 0.00 | 83 | 1016.4 |
| 20260510090808 | 52 | 205 | 3.0 | 3.0 | 0.00 | 0.00 | 0.00 | 87 | 1016.6 |
| 20260510085307 | 50 | 167 | 1.0 | 2.0 | 0.00 | 0.00 | 0.00 | 92 | 1017.2 |
| 20260510084808 | 49 | 142 | 1.0 | 2.0 | 0.00 | 0.00 | 0.00 | 92 | 1017.0 |
| 20260510084307 | 49 | 63 | 1.0 | 2.0 | 0.00 | 0.00 | 0.00 | 92 | 1017.0 |
| 20260510083807 | 49 | 61 | 0.0 | 0.0 | 0.00 | 0.00 | 0.00 | 90 | 1016.9 |
| 20260510083307 | 50 | 61 | 0.0 | 1.0 | 0.00 | 0.00 | 0.00 | 90 | 1016.6 |
| 20260510082807 | 50 | 61 | 1.0 | 1.0 | 0.00 | 0.00 | 0.00 | 91 | 1016.8 |
| 20260510082307 | 49 | 60 | 1.0 | 1.0 | 0.00 | 0.00 | 0.00 | 92 | 1016.8 |
| 20260510081307 | 49 | 56 | 0.0 | 1.0 | 0.00 | 0.00 | 0.00 | 91 | 1016.9 |
| 20260510080807 | 49 | 55 | 1.0 | 1.0 | 0.00 | 0.00 | 0.00 | 91 | 1016.9 |
| 20260510075807 | 49 | 34 | 0.0 | 2.0 | 0.00 | 0.00 | 0.00 | 89 | 1016.7 |
| 20260510074808 | 50 | 219 | 1.0 | 2.0 | 0.00 | 0.00 | 0.00 | 90 | 1016.6 |
| 20260510074307 | 50 | 240 | 1.0 | 1.0 | 0.00 | 0.00 | 0.00 | 89 | 1016.3 |
| 20260510073807 | 50 | 119 | 0.0 | 2.0 | 0.00 | 0.00 | 0.00 | 89 | 1016.6 |
| 20260510073307 | 50 | 120 | 1.0 | 2.0 | 0.00 | 0.00 | 0.00 | 88 | 1016.3 |
| 20260510072807 | 51 | 146 | 0.0 | 2.0 | 0.00 | 0.00 | 0.00 | 88 | 1016.1 |
| 20260510072308 | 50 | 231 | 0.0 | 0.0 | 0.00 | 0.00 | 0.00 | 90 | 1016.4 |
| 20260510070807 | 49 | 182 | 1.0 | 1.0 | 0.00 | 0.00 | 0.00 | 92 | 1016.5 |
| 20260510070307 | 49 | 231 | 0.0 | 0.0 | 0.00 | 0.00 | 0.00 | 89 | 1016.8 |
| 20260510065807 | 49 | 231 | 0.0 | 0.0 | 0.00 | 0.00 | 0.00 | 89 | 1016.6 |
| 20260510065308 | 49 | 231 | 0.0 | 2.0 | 0.00 | 0.00 | 0.00 | 88 | 1016.3 |
| 20260510064807 | 50 | 242 | 0.0 | 0.0 | 0.00 | 0.00 | 0.00 | 86 | 1016.4 |
| 20260510063807 | 51 | 242 | 0.0 | 0.0 | 0.00 | 0.00 | 0.00 | 84 | 1016.1 |
| 20260510062807 | 52 | 242 | 0.0 | 1.0 | 0.00 | 0.00 | 0.00 | 83 | 1015.8 |
| 20260510062307 | 52 | 242 | 1.0 | 1.0 | 0.00 | 0.00 | 0.00 | 84 | 1016.1 |
| 20260510061807 | 51 | 243 | 1.0 | 2.0 | 0.00 | 0.00 | 0.00 | 85 | 1016.2 |
| 20260510061307 | 51 | 243 | 1.0 | 2.0 | 0.00 | 0.00 | 0.00 | 85 | 1015.9 |
| 20260510060807 | 51 | 244 | 2.0 | 3.0 | 0.00 | 0.00 | 0.00 | 86 | 1016.1 |
| 20260510060307 | 51 | 249 | 2.0 | 3.0 | 0.00 | 0.00 | 0.00 | 84 | 1016.0 |
| 20260510055807 | 52 | 242 | 2.0 | 2.0 | 0.00 | 0.00 | 0.00 | 83 | 1016.2 |
| 20260510055307 | 52 | 195 | 1.0 | 1.0 | 0.00 | 0.00 | 0.00 | 82 | 1015.9 |
| 20260510054807 | 53 | 110 | 0.0 | 2.0 | 0.00 | 0.00 | 0.00 | 80 | 1016.0 |
| 20260510054307 | 53 | 86 | 0.0 | 0.0 | 0.00 | 0.00 | 0.00 | 79 | 1015.8 |
| 20260510053807 | 53 | 86 | 0.0 | 2.0 | 0.00 | 0.00 | 0.00 | 79 | 1015.8 |
| 20260510052807 | 52 | 60 | 1.0 | 1.0 | 0.00 | 0.00 | 0.00 | 82 | 1016.1 |
| 20260510052307 | 52 | 46 | 0.0 | 2.0 | 0.00 | 0.00 | 0.00 | 82 | 1016.1 |
| 20260510051806 | 52 | 75 | 0.0 | 1.0 | 0.00 | 0.00 | 0.00 | 82 | 1016.2 |
| 20260510050807 | 51 | 49 | 0.0 | 0.0 | 0.00 | 0.00 | 0.00 | 84 | 1016.2 |
| 20260510045807 | 51 | 49 | 0.0 | 2.0 | 0.00 | 0.00 | 0.00 | 85 | 1016.6 |
| 20260510044307 | 51 | 54 | 1.0 | 2.0 | 0.00 | 0.00 | 0.00 | 83 | 1016.1 |
| 20260510042807 | 55 | 350 | 0.0 | 5.0 | 0.00 | 0.00 | 0.00 | 74 | 1015.0 |
| 20260510042307 | 56 | 289 | 5.0 | 6.0 | 0.00 | 0.00 | 0.00 | 72 | 1014.7 |
| 20260510041807 | 57 | 275 | 5.0 | 7.0 | 0.00 | 0.00 | 0.00 | 71 | 1014.8 |
| 20260510040307 | 58 | 264 | 2.0 | 2.0 | 0.00 | 0.00 | 0.00 | 68 | 1014.6 |
| 20260510035807 | 58 | 251 | 2.0 | 3.0 | 0.00 | 0.00 | 0.00 | 67 | 1014.5 |
| 20260510035307 | 58 | 248 | 2.0 | 3.0 | 0.00 | 0.00 | 0.00 | 67 | 1014.6 |
| 20260510034806 | 58 | 262 | 2.0 | 5.0 | 0.00 | 0.00 | 0.00 | 66 | 1014.3 |
| 20260510034306 | 58 | 252 | 2.0 | 5.0 | 0.00 | 0.00 | 0.00 | 66 | 1014.5 |
| 20260510033807 | 58 | 260 | 3.0 | 5.0 | 0.00 | 0.00 | 0.00 | 67 | 1014.4 |
| 20260510033307 | 58 | 248 | 2.0 | 2.0 | 0.00 | 0.00 | 0.00 | 68 | 1014.4 |
| 20260510032806 | 58 | 251 | 2.0 | 2.0 | 0.00 | 0.00 | 0.00 | 67 | 1014.3 |
| 20260510032307 | 58 | 245 | 1.0 | 2.0 | 0.00 | 0.00 | 0.00 | 67 | 1014.4 |
| 20260510031807 | 57 | 235 | 2.0 | 2.0 | 0.00 | 0.00 | 0.00 | 69 | 1014.6 |
| 20260510031306 | 58 | 240 | 1.0 | 2.0 | 0.00 | 0.00 | 0.00 | 68 | 1014.4 |
| 20260510030306 | 57 | 256 | 1.0 | 1.0 | 0.00 | 0.00 | 0.00 | 68 | 1014.5 |
| 20260510025807 | 57 | 256 | 0.0 | 1.0 | 0.00 | 0.00 | 0.00 | 68 | 1014.7 |
| 20260510025307 | 58 | 256 | 0.0 | 0.0 | 0.00 | 0.00 | 0.00 | 67 | 1014.4 |
| 20260510024806 | 58 | 256 | 0.0 | 0.0 | 0.00 | 0.00 | 0.00 | 67 | 1014.3 |
| 20260510024306 | 57 | 256 | 0.0 | 1.0 | 0.00 | 0.00 | 0.00 | 67 | 1014.3 |
| 20260510023307 | 56 | 256 | 1.0 | 2.0 | 0.00 | 0.00 | 0.00 | 69 | 1014.7 |
| 20260510022806 | 57 | 256 | 1.0 | 2.0 | 0.00 | 0.00 | 0.00 | 68 | 1014.3 |
| 20260510022307 | 58 | 257 | 2.0 | 2.0 | 0.00 | 0.00 | 0.00 | 66 | 1014.0 |
| 20260510021807 | 59 | 261 | 0.0 | 2.0 | 0.00 | 0.00 | 0.00 | 64 | 1013.9 |
| 20260510021306 | 59 | 249 | 2.0 | 5.0 | 0.00 | 0.00 | 0.00 | 64 | 1013.6 |
| 20260510020806 | 60 | 249 | 2.0 | 5.0 | 0.00 | 0.00 | 0.00 | 62 | 1013.6 |
| 20260510020307 | 60 | 263 | 2.0 | 3.0 | 0.00 | 0.00 | 0.00 | 62 | 1013.5 |
| 20260510015806 | 60 | 246 | 3.0 | 3.0 | 0.00 | 0.00 | 0.00 | 62 | 1013.7 |
| 20260510015307 | 60 | 251 | 2.0 | 3.0 | 0.00 | 0.00 | 0.00 | 62 | 1013.4 |
| 20260510014807 | 60 | 251 | 2.0 | 3.0 | 0.00 | 0.00 | 0.00 | 61 | 1013.5 |
| 20260510014306 | 60 | 246 | 2.0 | 5.0 | 0.00 | 0.00 | 0.00 | 61 | 1013.5 |
| 20260510013806 | 60 | 256 | 3.0 | 5.0 | 0.00 | 0.00 | 0.00 | 62 | 1013.0 |
| 20260510012807 | 60 | 256 | 3.0 | 3.0 | 0.00 | 0.00 | 0.00 | 60 | 1012.8 |
| 20260510011806 | 60 | 240 | 3.0 | 3.0 | 0.00 | 0.00 | 0.00 | 60 | 1012.5 |
| 20260510011307 | 60 | 248 | 2.0 | 3.0 | 0.00 | 0.00 | 0.00 | 60 | 1012.1 |
| 20260510010806 | 60 | 241 | 3.0 | 3.0 | 0.00 | 0.00 | 0.00 | 60 | 1012.4 |
| 20260510010306 | 61 | 243 | 3.0 | 5.0 | 0.00 | 0.00 | 0.00 | 59 | 1012.1 |
| 20260510005807 | 60 | 259 | 4.0 | 6.0 | 0.00 | 0.00 | 0.00 | 60 | 1011.9 |
| 20260510005307 | 61 | 256 | 3.0 | 5.0 | 0.00 | 0.00 | 0.00 | 59 | 1012.1 |
| 20260510003807 | 61 | 243 | 2.0 | 3.0 | 0.00 | 0.00 | 0.00 | 58 | 1011.5 |
| 20260510003306 | 61 | 243 | 2.0 | 3.0 | 0.00 | 0.00 | 0.00 | 58 | 1011.6 |
| 20260510002806 | 61 | 244 | 2.0 | 3.0 | 0.00 | 0.00 | 0.00 | 58 | 1011.8 |
| 20260510002307 | 61 | 245 | 2.0 | 5.0 | 0.00 | 0.00 | 0.00 | 58 | 1011.4 |
| 20260510001306 | 62 | 232 | 2.0 | 6.0 | 0.00 | 0.00 | 0.00 | 56 | 1011.3 |
| 20260510000306 | 62 | 256 | 3.0 | 6.0 | 0.00 | 0.00 | 0.00 | 55 | 1011.4 |
| 20260509235806 | 62 | 262 | 4.0 | 6.0 | 0.00 | 0.00 | 0.00 | 55 | 1011.3 |
| 20260509235307 | 63 | 276 | 5.0 | 7.0 | 0.00 | 0.00 | 0.00 | 54 | 1011.1 |
| 20260509234306 | 63 | 260 | 6.0 | 13.0 | 0.00 | 0.00 | 0.00 | 53 | 1011.0 |
| 20260509233806 | 63 | 288 | 9.0 | 15.0 | 0.00 | 0.00 | 0.00 | 52 | 1010.9 |
| 20260509232805 | 65 | 255 | 6.0 | 7.0 | 0.00 | 0.00 | 0.00 | 49 | 1010.7 |
| 20260509232306 | 65 | 274 | 5.0 | 7.0 | 0.00 | 0.00 | 0.00 | 49 | 1010.4 |
| 20260509231806 | 65 | 264 | 5.0 | 8.0 | 0.00 | 0.00 | 0.00 | 50 | 1010.5 |
| 20260509231306 | 64 | 274 | 5.0 | 10.0 | 0.00 | 0.00 | 0.00 | 51 | 1010.7 |